Regional Weather Roundup
Issued by NWS

Home | Current Version | Previous Version | Graphics & Text | Print | Product List | Glossary On
Versions: 1 2 3 4 5 6 7 8 9 10 11 12 13 14 15 16 17 18 19 20 21 22 23 24 25 26 27 28 29 30 31 32 33 34 35 36 37 38 39 40 41 42 43 44 45 46 47 48 49 50
134
ASUS43 KLOT 301603
RWRIL

ILLINOIS REGIONAL WEATHER ROUNDUP
NATIONAL WEATHER SERVICE CHICAGO/ROMEOVILLE IL
1100 AM CDT MON MAY 30 2016

NOTE: "FAIR" INDICATES FEW OR NO CLOUDS BELOW 12,000 FEET WITH NO
SIGNIFICANT WEATHER AND/OR OBSTRUCTIONS TO VISIBILITY.

* THESE STATIONS ARE NOT UNDER NWS QUALITY CONTROL. THEY ALSO MAY NOT
  REPORT WEATHER SUCH AS PRECIPITATION OR FOG.

ILZ001-002-007-009-015-016-024-301700-
NORTHWEST ILLINOIS

CITY           SKY/WX    TMP DP  RH WIND       PRES   REMARKS
MOLINE         CLOUDY    76  63  64 W13       30.07R
STERLING*      SUNNY     81  63  54 CALM      30.05S HX  82
$$

ILZ003-004-008-010-011-017-018-301700-
NORTH CENTRAL ILLINOIS

CITY           SKY/WX    TMP DP  RH WIND       PRES   REMARKS
ROCKFORD       MOSUNNY   81  60  48 W12       30.06S HX  82
FREEPORT*      SUNNY     78  56  46 NW8       30.06F
ROCHELLE*      SUNNY     78  60  53 CALM      30.05F HX  80
$$

ILZ005-006-012>014-019>023-301700-
NORTHEAST ILLINOIS

CITY           SKY/WX    TMP DP  RH WIND       PRES   REMARKS
CHICAGO-OHARE  MOSUNNY   79  60  52 SW10      30.03S HX  80
CHICAGO-MIDWAY MOSUNNY   81  59  47 SW10G22   30.03S HX  81
AURORA         SUNNY     81  62  52 W9        30.04S HX  82
LANSING*       SUNNY     82  58  43 W9        30.04S HX  82
WAUKEGAN       MOSUNNY   78  58  49 NW3       30.03R
DUPAGE AIRPORT SUNNY     79  60  52 W10       30.04R HX  80
WHEELING       SUNNY     79  56  45 SW8       30.04R HX  80
NORTHERLY ISL    N/A     70  60  70 SE5         N/A
NORTHERLY ISL    N/A     70  60  70 SE5         N/A
$$

LMZ740>746-301700-
SOUTHERN LAKE MICHIGAN

STATION/POSITION SKY/WX   TEMP    WIND        PRES    VSBY  WAVE
                          AIR SEA DIR/SP/G                  HT/PER
                          (F)     (DEG/KT/KT) (MB)    (MI)  (FT/S)
SOUTHERN BUOY              58 54  240/  2/  2 1016.4          0
WILMETTE HARBOR            65 56  170/  4/  4   N/A           0
HARRISON CRIB              74     110/  4/  5   N/A
BURNHAM HARBOR             70      CALM  /  5   N/A
CALUMET HARBOR             75      50/  6/  8 1016.4R
BURNS HARBOR               70     330/  3/  3 1017.6S
MICHIGAN CITY              68     240/  6/  6   N/A
MICHIGAN CITY 6N           67 59  220/  2/  2   N/A           0
ST. JOSEPH                 63 63  210/  2/  4   N/A           1
$$

ILZ025>027-034>036-040-047-049-050-058-095>099-301700-
WEST-CENTRAL ILLINOIS

CITY           SKY/WX    TMP DP  RH WIND       PRES   REMARKS
QUINCY         SUNNY     81  65  58 W3        30.07S HX  83
MACOMB*        CLOUDY    81  61  50 W6        30.08S HX  82
PITTSFIELD*    SUNNY     81  65  57 W6        30.08S HX  83
$$

ILZ028>032-037-038-041>044-048-051>054-059>061-301700-
CENTRAL ILLINOIS

CITY           SKY/WX    TMP DP  RH WIND       PRES   REMARKS
BLOOMINGTON    SUNNY     82  64  54 SW6       30.07F HX  83
DECATUR        SUNNY     82  61  48 W5        30.06F HX  83
PEORIA         CLOUDY    84  61  45 SW10      30.05F HX  84
LINCOLN*       SUNNY     84  63  49 W3        30.05F HX  85
SPRINGFIELD    MOSUNNY   84  59  42 W9        30.06F HX  84
TAYLORVILLE    NOT AVBL
$$

ILZ033-039-045-046-055>057-062-063-301700-
EAST-CENTRAL ILLINOIS

CITY           SKY/WX    TMP DP  RH WIND       PRES   REMARKS
CHAMPAIGN      SUNNY     82  56  40 VRB6      30.06F HX  82
MATTOON        SUNNY     81  57  43 SW7       30.06F HX  81
$$

ILZ079-100>102-301700-
SOUTHWEST ILLINOIS

CITY           SKY/WX    TMP DP  RH WIND       PRES   REMARKS
ALTON          MOSUNNY   81  63  54 W8        30.07F HX  82
BELLEVILLE     MOSUNNY   84  65  53 CALM      30.05F HX  86
CAHOKIA*       SUNNY     84  64  50 CALM      30.06F HX  85
SPARTA*        SUNNY     81  63  54 CALM      30.08F HX  82
$$

ILZ064>066-069>071-074>076-080>082-084>086-088>090-092>094-301700-
SOUTH-CENTRAL ILLINOIS

CITY           SKY/WX    TMP DP  RH WIND       PRES   REMARKS
CARBONDALE     SUNNY     82  58  43 VRB3      30.07F HX  82
EFFINGHAM*     SUNNY     81  64  55 SW3       30.09F HX  82
MARION         MOSUNNY   82  63  51 N6        30.08F HX  83
MT. VERNON     SUNNY     82  61  47 CALM      30.08S HX  83
SALEM*         MOSUNNY   82  63  51 CALM      30.08S HX  83
$$

ILZ067-068-072-073-078-083-087-091-301700-
SOUTHEAST ILLINOIS

CITY           SKY/WX    TMP DP  RH WIND       PRES   REMARKS
LAWRENCEVILLE  SUNNY     83  59  44 E3        30.07F HX  83
FLORA*         SUNNY     83  61  46 CALM      30.07F HX  84
HARRISBURG*    SUNNY     81  63  53 CALM      30.07F HX  82
ROBINSON*      SUNNY     82  58  44 CALM      30.08F HX  82
$$

ABBREVIATIONS USED IN REMARKS
   TC - TEMPERATURE IN CELSIUS
  WCI - WIND CHILL INDEX
   HX - HEAT INDEX
  VSB - VISIBILITY
$$





USA.gov is the U.S. government's official web portal to all federal, state and local government web resources and services.